SCOUT G-1 DEB, 18525

Orbit data source: Space-Track

SCOUT G-1 DEB, 18525 is space debris in LEO originally from a launch on Fri, 14 Nov 1986 UTC launched from the Air Force Western Test Range (AFWTR). Debris objects in space refer to the collection of defunct objects orbiting the Earth. Examples of debris include non-operational satellites, rocket bodies, and fragments generated from explosions, collisions, or faulty payload assembly.

Loading next visibility...
SCOUT G-1 DEB details
Identifier
18525, 1986-088D
Orbit
LEO
Last TLE update19 hours ago
Origin
Flag of USUSAF SD (US)
ManufacturerUnknown
MissionSpacecraft
Bus & MotorUnknown
Mass2 kg wet, 2 kg dry
Launch date (UTC)
1986-11-14 (38 years ago)
Launch vehicleUnknown
Launch site
Air Force Western Test Range (AFWTR)
Object type
Payload
Rocket body
Debris
Shape & HBRUnknown
Radar Cross SectionSmall (<0.1 m²)

Expand to show TLE details & history

TLE from 19 hours ago
0 SCOUT G-1 DEB
1 18525U 86088D   25013.20305201  .00000452  00000-0  38402-3 0  9996
2 18525  89.9288 347.1897 0002884 223.1661 150.1670 13.86067507926223
Epoch: 2025-01-13T04:52Z
Definitive object data (Epoch: 2025-01-13T04:52:23.693Z)
Latitude13.31301°
Longitude161.18027°
Altitude946.538 km
Speed7.379 km/s
True Right ascension23h 08m 49s
True Declination13° 14' 17"
Sunlit
Object was in daylight at TLE epoch
Visualization TLE readout
Latitude71.97051°
Longitude161.37496°
Altitude956.754 km
Speed7.379 km/s
Apparent Right ascension14h 00m 52s
Apparent Declination44° 03' 15"
Sunlit
Object is in daylight
Visualization observer readout
Local Sidereal Time00:47:13
Azimuth346.842° N
Elevation-4.407°
Doppler factor1
Orbital elements
Apogee altitude941.552 km
Perigee altitude937.332 km
Semi-major axis7,317.579 km
Eccentricity0.0002884
Inclination89.9288°
RAAN347.1897°
Arg. of periapsis223.1661°
True anomaly150.18344°
Mean anomaly150.167°
Eccentric anomaly150.17522°
Mean motion3.4673 °/min
BSTAR0.00038402
Orbital period103.83 mins
Loading maneuver chart data...
Loading historical data...
Loading historical data...
Loading historical data...
Loading historical data...
Loading historical data...
Loading historical data...
Loading historical data...

SCOUT G-1 DEB Visibility forecast

Observer location: undefined°, undefined

Span
Click to sort rows by Start time (UTC) header in descending order
Start Az.
Max El. time (UTC)
Max El. Az.
Max El.
End time (UTC)
End Az.
7 mins2025-01-14 09:08:49.132Z43.241° NE2025-01-14 09:11:49.132Z77.405° E18.356°2025-01-14 09:15:49.132Z121.751° SE
10 mins2025-01-14 10:51:49.132Z349.565° N2025-01-14 10:55:49.132Z290.027° WNW39.947°2025-01-14 11:01:49.132Z200.169° SSW
10 mins2025-01-14 22:30:49.132Z180.05° SSW2025-01-14 22:34:49.132Z232.135° WSW44.754°2025-01-14 22:40:49.132Z356.492° N
|